GFSNW_sfc_30mbdewp_000.txt.gz
Dewpoint
38 42 46 46 47 47 47 44 35 48 49 38 37 34 34 34 37 39 38 38 37 34 30 30 29 28 26 32 32 32 33 32 27 27 31 35 31 29 28 22 19 27 30 25
38 42 45 44 48 48 47 42 42 48 46 33 33 36 34 34 37 38 37 37 37 36 31 28 28 27 27 30 31 31 35 32 25 27 31 35 34 29 30 28 29 30 27 25
38 41 42 45 46 49 48 42 37 42 43 41 35 33 34 34 38 36 38 39 39 37 34 30 28 29 28 29 31 34 36 34 30 25 30 33 32 34 33 34 28 26 28 31
36 41 42 45 46 48 49 44 38 40 34 37 37 36 36 34 35 39 40 37 38 37 33 31 31 30 26 32 37 38 36 30 32 32 33 33 35 34 34 34 32 28 26 29
34 40 43 45 46 47 48 41 40 40 37 38 39 37 37 35 37 39 38 37 37 36 35 29 26 27 30 30 37 37 37 30 31 30 36 35 36 37 37 37 35 35 35 34
35 40 42 45 46 47 42 47 46 40 38 37 37 37 36 36 37 39 39 39 38 36 37 37 38 38 35 34 36 35 34 32 31 31 38 36 34 35 37 35 35 34 33 34
36 39 42 44 46 47 46 47 45 41 37 38 37 38 38 38 37 36 40 40 39 39 43 41 42 39 39 36 33 33 32 33 34 32 36 25 27 36 38 37 38 39 32 27
36 38 41 44 45 46 46 48 45 41 37 37 37 37 37 36 40 39 39 41 42 41 40 39 36 36 37 34 35 33 31 31 32 30 28 28 25 27 34 34 34 32 28 31
34 38 41 44 46 47 47 48 49 43 39 38 39 37 36 36 35 38 40 43 42 42 40 38 32 29 30 31 35 36 34 34 33 33 27 23 24 28 28 29 28 29 31 31
35 37 40 43 46 47 47 48 49 44 40 40 40 37 36 39 38 36 39 40 42 44 39 36 33 31 34 30 29 34 33 33 32 31 31 29 31 29 29 26 26 29 32 32
35 36 40 42 44 46 47 47 49 46 42 41 40 40 40 40 39 36 39 40 40 41 37 35 36 32 34 34 34 34 33 32 31 31 30 26 33 28 24 28 32 33 33 33
35 36 39 41 42 46 47 46 49 49 44 43 45 43 42 42 42 41 42 41 41 41 39 38 39 33 36 34 31 35 32 34 32 33 31 34 33 32 35 33 33 33 33 34
35 35 39 40 41 45 47 46 48 47 44 43 43 41 44 46 46 47 40 42 44 44 43 39 37 31 35 34 34 34 36 37 34 34 33 33 33 35 35 34 34 33 34 34
35 36 39 40 41 44 46 45 48 47 43 39 41 45 43 46 47 47 47 45 46 45 46 40 35 34 35 32 31 34 36 36 33 32 32 32 33 34 34 33 33 33 33 33
35 37 38 39 41 43 46 47 48 48 45 40 41 43 45 47 47 46 46 45 45 44 44 42 38 40 37 36 35 32 31 35 34 33 32 32 31 34 33 33 33 33 32 32
35 37 38 40 40 42 44 44 48 48 47 41 39 44 43 45 46 46 45 45 44 44 43 42 42 42 40 37 34 35 33 32 35 33 33 32 33 33 33 33 33 33 32 32
36 37 39 40 40 41 40 42 46 49 47 41 39 39 43 44 45 45 45 46 45 44 43 42 40 40 40 36 33 35 35 33 33 33 33 32 32 32 32 32 32 32 31 31
37 38 40 39 40 42 43 47 48 48 44 44 38 37 40 44 43 41 46 42 44 43 42 40 39 37 37 34 36 35 33 33 33 33 33 33 32 31 30 30 29 29 28 28
38 39 41 41 42 42 46 50 48 48 44 39 38 35 34 42 42 42 42 44 40 42 40 39 38 36 33 33 34 33 32 32 33 32 31 31 30 28 27 27 26 25 26 26
38 41 39 37 42 50 49 46 43 43 43 41 38 39 37 41 40 38 39 39 38 36 38 38 37 36 37 38 37 34 33 33 32 31 29 29 28 27 25 25 25 25 26 26
37 32 32 34 38 45 43 38 38 39 37 39 39 39 37 40 36 37 37 36 35 32 33 35 32 33 35 37 38 35 33 33 33 32 31 30 28 25 24 24 26 27 28 27
36 37 38 34 35 37 33 32 37 36 34 38 38 38 38 38 38 35 35 33 34 30 35 33 30 33 34 34 36 34 34 33 32 32 30 27 24 24 25 25 26 27 28 29
37 33 29 29 33 30 30 29 32 33 37 38 37 36 35 35 35 34 33 32 31 31 29 28 30 31 32 33 33 33 33 31 29 26 24 25 25 26 25 26 28 29 29 28
29 27 25 28 28 30 31 30 32 34 37 37 36 33 33 33 31 32 30 30 29 26 25 24 26 28 32 33 32 31 30 27 25 25 25 25 25 26 27 27 27 27 27 27
28 29 25 29 33 32 32 31 32 35 38 36 33 32 31 31 30 28 28 26 25 25 23 24 26 29 31 31 29 27 26 25 25 25 25 25 26 25 25 25 25 25 24 23
29 29 28 32 32 31 32 32 33 37 37 34 32 29 28 28 27 26 25 24 23 23 25 27 28 30 28 27 26 26 26 25 24 24 24 24 24 24 23 21 20 19 18 16
30 30 32 31 32 31 32 33 35 38 35 32 29 27 26 26 24 24 23 22 21 23 29 28 29 29 25 25 25 25 24 24 24 23 23 21 20 19 18 17 15 14 14 13

GFSNW_sfc_30mbdewp_006.txt.gz
Dewpoint
36 34 35 39 41 44 44 39 33 48 48 35 36 30 27 31 38 39 37 34 32 30 30 31 28 26 28 32 33 31 33 31 25 25 30 31 28 27 27 22 18 21 18 15
37 33 36 39 42 45 43 36 40 48 44 31 32 32 31 35 38 38 36 35 34 35 32 28 30 29 30 33 34 32 33 30 24 25 29 33 31 29 27 26 26 20 16 13
37 33 35 39 44 45 45 37 34 40 41 39 32 31 30 30 37 37 38 36 36 35 34 32 29 30 30 33 34 35 34 32 28 21 26 31 29 30 30 27 24 21 21 19
36 33 35 40 44 45 46 40 35 36 31 35 32 32 31 31 32 37 38 37 36 36 33 33 32 31 31 33 34 36 36 28 31 31 30 32 32 31 31 29 27 22 20 20
35 33 37 40 45 46 42 39 36 37 35 35 32 31 34 32 33 36 35 34 36 37 35 33 28 32 32 32 34 35 37 29 32 29 33 32 30 32 33 33 29 27 25 23
33 34 38 41 45 46 38 39 42 37 36 35 31 31 33 32 35 35 37 38 38 37 37 39 38 37 36 36 36 35 33 31 29 26 33 33 26 31 31 31 33 28 26 27
34 34 37 39 43 46 43 41 42 39 34 34 32 34 33 36 37 35 38 39 38 39 42 40 40 38 37 37 37 38 34 30 31 27 30 26 33 36 33 31 33 33 29 34
34 35 36 38 42 44 44 44 42 42 34 35 34 36 36 36 38 38 38 38 40 42 40 37 35 34 35 35 38 38 37 33 30 28 30 31 32 37 33 32 32 33 32 33
36 35 37 38 41 43 44 44 46 44 37 34 36 37 38 37 37 38 39 41 44 43 40 36 31 26 29 29 33 35 38 36 32 31 28 21 26 39 42 39 33 37 37 36
37 35 37 37 40 42 44 44 47 44 39 40 39 36 37 39 38 36 37 39 39 42 37 33 32 30 32 28 30 31 32 33 30 29 29 29 31 35 40 32 29 32 38 38
36 36 37 36 39 42 44 43 47 46 42 41 41 40 39 39 37 34 39 38 40 38 35 34 35 33 33 32 30 33 31 29 29 31 29 25 33 36 32 31 31 32 36 36
37 36 36 35 37 41 44 40 45 47 45 42 45 43 42 41 40 39 41 39 40 40 39 37 37 35 33 32 28 34 32 32 30 31 28 32 33 32 34 33 32 33 33 34
37 37 37 35 36 39 42 41 43 45 44 42 42 41 44 45 44 44 39 41 42 43 45 40 37 35 35 32 31 33 35 36 34 34 32 34 33 35 34 33 33 34 34 33
37 37 34 35 37 39 40 40 41 41 44 39 38 45 43 46 46 45 45 45 46 46 45 42 38 35 36 33 34 34 35 36 34 34 34 32 32 34 33 34 34 34 34 33
33 33 34 35 37 38 40 41 42 43 42 39 41 43 45 47 46 45 46 45 44 43 41 40 39 37 35 36 34 32 35 35 34 33 35 33 32 34 33 33 33 32 32 31
33 32 32 33 36 37 39 38 47 48 48 43 37 44 44 45 46 45 45 45 44 43 42 42 43 42 38 35 33 35 34 35 37 36 33 33 33 33 33 32 32 31 31 30
32 34 33 34 35 37 35 36 42 43 43 43 38 37 44 45 44 44 45 46 44 43 41 42 42 42 41 39 35 36 36 36 33 34 33 32 33 32 33 32 32 31 30 29
32 33 35 36 38 38 37 40 42 42 41 44 38 37 39 44 41 41 45 43 44 44 42 42 40 40 40 37 37 37 35 34 33 33 33 33 33 32 32 31 30 29 28 29
36 35 38 41 38 36 40 41 42 44 45 38 38 34 32 43 42 42 43 43 39 43 40 40 40 38 36 37 37 36 35 34 32 32 32 32 32 31 30 29 28 27 28 28
34 37 34 34 35 39 40 43 42 42 44 43 38 38 35 40 40 39 39 39 38 35 38 39 37 37 38 38 37 36 35 33 31 30 30 30 30 30 29 28 28 28 28 27
34 31 31 36 38 38 40 37 37 38 37 40 39 37 36 41 37 37 38 36 35 32 33 35 34 33 36 36 38 38 34 32 32 32 31 31 31 29 28 27 27 26 26 25
34 34 36 36 32 32 32 32 35 35 32 37 37 37 36 38 39 37 36 34 33 29 33 33 30 32 33 33 37 35 33 32 32 31 31 30 29 27 26 26 25 24 24 22
35 32 30 29 29 27 29 27 31 33 36 38 37 36 36 36 36 34 34 33 30 31 30 29 30 31 31 32 34 34 33 32 30 29 28 27 26 26 26 25 25 23 22 21
28 26 23 25 26 29 30 29 31 32 33 37 35 34 34 34 33 32 32 32 31 28 26 25 27 27 28 32 33 32 31 30 28 26 26 26 26 26 26 26 25 23 22 22
27 27 23 26 31 32 32 33 32 34 36 35 33 33 32 31 31 28 30 28 26 27 25 25 26 26 30 32 31 30 28 26 26 26 26 26 26 26 26 26 25 24 23 22
28 27 26 29 28 28 31 32 32 34 37 35 34 31 30 30 29 28 27 26 24 24 27 26 26 28 30 30 29 27 26 26 26 26 25 25 26 25 25 25 24 22 21 19
26 28 31 28 27 29 30 32 34 36 36 34 31 29 28 27 26 26 25 25 25 26 25 28 27 28 28 27 27 26 26 25 25 25 24 24 25 24 23 22 19 17 16 15

GFSNW_sfc_30mbdewp_012.txt.gz
Dewpoint
39 38 35 39 41 44 45 39 31 45 45 32 34 32 30 35 34 38 34 31 29 28 29 29 28 28 27 30 34 32 31 29 25 25 26 28 25 25 26 24 21 26 22 18
38 37 36 39 42 45 45 35 37 45 44 30 32 34 34 37 36 36 34 33 32 30 30 28 28 29 30 32 32 30 32 30 24 24 28 29 28 26 26 30 29 24 21 15
38 37 36 40 42 46 45 36 32 37 39 38 33 31 32 34 38 37 36 35 34 31 29 30 29 30 31 31 31 33 32 29 26 20 22 27 29 30 31 31 25 22 23 22
37 38 37 41 43 46 44 40 35 37 32 34 31 31 33 33 33 37 37 34 32 31 30 30 30 31 31 32 33 33 32 29 30 29 29 30 31 30 32 29 28 24 22 21
37 38 38 42 43 45 41 36 36 37 36 34 30 33 31 31 35 34 34 33 33 34 31 32 30 32 32 31 33 32 35 29 32 29 31 31 31 33 33 32 32 29 27 26
37 38 39 40 41 43 40 40 41 40 37 34 30 31 31 31 34 36 37 35 35 35 35 36 37 36 36 35 33 32 34 32 30 25 29 30 29 33 34 34 35 31 28 29
37 38 37 38 40 41 42 42 41 38 33 33 30 31 33 33 33 36 38 37 36 38 41 40 40 38 38 39 38 35 35 33 31 27 30 25 35 37 38 35 35 34 31 30
37 38 38 38 37 40 42 43 41 39 34 32 32 32 33 37 38 36 37 38 39 41 39 35 31 33 34 35 37 37 36 35 30 27 28 29 33 34 37 34 31 32 33 32
37 37 37 39 37 38 41 44 46 42 38 33 33 32 33 32 34 37 37 42 44 42 39 34 29 27 28 28 31 38 37 36 33 30 27 26 32 32 36 35 29 32 33 33
37 37 38 38 36 37 40 42 44 41 38 40 35 34 35 38 37 36 37 39 40 43 36 32 31 29 32 27 28 31 32 33 30 30 29 29 32 33 39 29 28 33 35 34
35 36 36 35 35 36 39 39 44 39 37 41 41 39 39 39 38 34 37 38 39 39 34 33 33 32 31 31 31 31 29 30 30 30 27 26 33 35 31 33 34 33 36 38
33 33 33 33 34 35 37 37 40 42 38 42 45 44 43 41 40 39 40 39 39 38 36 36 37 33 34 31 28 32 30 32 29 31 30 32 34 35 35 35 34 34 36 37
33 33 33 33 33 34 35 37 40 37 38 43 42 41 44 45 43 44 39 41 42 42 43 40 38 34 37 31 32 32 34 35 34 34 33 34 35 35 35 34 34 35 37 34
34 34 33 33 33 34 34 36 38 38 36 36 38 44 43 46 46 45 44 44 45 45 44 39 37 36 37 35 34 34 35 36 35 35 35 35 35 34 34 34 34 33 33 32
35 35 34 32 33 34 36 37 38 39 36 35 40 43 45 46 46 45 45 44 44 43 40 39 36 39 37 36 35 34 36 35 33 30 35 35 34 34 34 34 32 32 30 29
35 35 34 34 34 35 36 35 42 40 39 35 37 44 43 44 45 45 44 44 44 43 41 39 39 41 38 36 34 35 35 36 37 35 34 33 34 34 34 33 32 31 30 28
34 34 33 34 35 36 32 33 39 40 41 36 37 37 44 45 44 44 43 45 44 43 41 39 39 40 41 38 34 35 37 37 36 36 34 33 33 33 33 32 32 30 28 26
34 34 34 35 39 37 35 38 41 43 39 40 37 36 38 44 41 40 44 42 43 43 41 41 40 41 41 37 39 39 38 36 35 35 34 34 34 32 32 31 29 28 26 25
34 34 37 40 36 34 37 39 42 43 39 37 38 34 32 44 42 41 43 44 39 42 39 40 40 38 35 38 39 39 39 37 36 34 33 33 33 32 31 30 30 28 27 25
33 34 34 33 34 38 40 39 37 38 39 40 37 37 35 40 40 40 39 40 38 35 38 39 36 36 39 40 40 40 38 37 34 33 32 32 32 31 31 30 30 29 27 24
34 30 31 36 38 39 36 32 33 37 36 40 39 37 35 41 36 38 38 36 36 33 34 35 35 34 36 36 34 36 38 36 34 33 33 33 33 31 30 29 28 27 25 23
33 35 37 37 33 32 31 31 35 34 33 38 38 37 37 39 39 38 37 34 34 30 32 32 31 33 34 32 32 35 36 34 33 32 32 33 32 30 29 28 27 26 24 22
34 32 28 30 31 28 27 25 30 32 33 35 37 36 37 37 37 35 35 32 31 32 30 29 31 33 30 28 32 34 33 33 32 31 32 31 30 29 28 27 26 24 22 21
27 26 24 27 27 28 28 28 29 33 33 34 36 35 35 35 35 33 32 32 31 28 27 27 30 29 27 30 32 33 32 31 30 30 29 29 29 27 27 26 25 23 21 20
27 26 24 26 28 31 31 32 32 34 35 35 35 34 33 32 32 31 31 29 27 28 27 29 29 27 28 31 32 32 30 29 29 29 28 28 27 26 25 25 24 22 20 18
28 27 26 27 26 25 27 28 30 35 35 36 35 33 32 32 31 30 29 28 26 26 30 31 27 28 29 31 30 30 28 27 27 27 27 26 25 24 23 22 21 20 18 16
26 26 30 29 26 25 27 26 29 32 34 33 33 31 32 29 28 28 29 28 28 28 29 28 29 29 29 29 28 28 27 27 27 27 26 25 24 22 21 20 19 18 16 15

GFSNW_sfc_30mbdewp_018.txt.gz
Dewpoint
37 39 38 40 43 47 43 39 32 42 44 33 34 33 34 36 34 36 30 28 26 26 26 26 25 26 27 29 30 28 28 27 26 27 28 29 28 27 26 23 20 23 22 21
39 39 39 41 43 46 45 37 37 42 44 31 32 36 37 33 36 35 32 29 28 27 26 26 27 27 28 29 30 29 29 28 24 27 27 26 25 26 26 27 27 25 22 20
39 40 40 43 42 44 44 38 32 37 41 39 33 35 33 36 38 34 32 30 29 27 26 28 27 29 30 29 31 32 30 28 26 23 26 28 29 29 28 27 27 25 25 25
39 39 41 42 42 44 44 41 35 35 33 32 34 36 36 32 29 34 33 30 29 27 26 27 27 29 31 30 33 31 30 29 29 29 28 28 28 29 29 31 32 28 28 29
38 38 41 41 42 43 41 37 37 38 33 32 34 33 33 32 32 33 30 29 28 29 27 31 27 29 29 30 31 30 32 30 32 28 30 30 29 29 30 32 35 35 35 34
38 39 41 40 40 41 40 41 42 39 31 30 29 27 30 32 34 35 34 32 32 31 35 36 35 35 33 33 32 31 34 33 29 25 28 29 28 31 35 36 35 36 32 36
36 38 38 37 38 40 41 41 41 38 30 30 28 30 31 32 35 34 36 34 32 39 39 39 38 37 35 34 34 33 35 32 31 27 29 24 33 36 36 36 37 37 34 38
36 35 35 35 37 38 39 43 40 38 35 31 29 30 30 32 36 35 36 38 39 40 38 35 30 32 31 32 33 35 36 34 30 27 27 26 32 37 34 35 34 35 32 35
36 35 35 34 35 36 38 43 41 39 36 32 34 30 33 33 32 35 36 41 43 41 37 34 27 26 32 30 34 37 37 37 32 31 26 22 31 34 38 36 33 34 35 37
36 36 35 34 34 34 36 40 40 39 36 37 38 31 31 34 33 34 37 40 40 41 36 33 29 28 32 27 30 31 33 34 29 30 28 29 30 32 36 32 29 35 34 39
36 36 36 34 34 34 36 36 40 36 34 35 38 39 37 34 34 32 38 38 38 37 35 32 32 32 31 30 30 31 30 29 29 30 28 25 33 33 32 35 36 35 35 38
36 37 35 35 34 33 34 32 38 39 35 35 39 39 40 43 42 39 39 39 37 39 35 36 36 33 35 32 28 33 28 30 31 30 30 32 35 35 36 36 35 35 35 36
36 36 36 34 33 35 32 34 36 37 35 36 39 42 44 44 44 45 38 41 41 40 43 39 38 34 37 33 31 33 31 32 33 32 33 34 35 36 35 35 34 35 37 36
36 35 35 33 33 36 33 34 35 36 33 28 39 44 43 46 46 44 45 43 45 45 43 39 36 35 38 36 35 35 35 36 34 34 35 35 35 34 34 34 35 36 33 33
36 37 37 36 36 37 35 36 36 37 32 30 35 42 45 46 45 44 44 44 43 43 41 39 37 38 37 37 36 33 34 34 34 33 35 35 34 34 35 33 33 32 31 31
36 36 36 34 34 34 35 29 40 41 37 31 32 44 43 44 45 44 43 43 44 43 41 39 40 40 38 35 33 34 33 34 35 34 35 35 35 34 34 32 32 31 30 29
37 36 36 36 35 36 32 28 37 40 40 32 32 39 44 44 44 44 44 45 44 43 42 40 39 39 40 38 34 34 34 34 36 37 36 35 34 34 33 32 31 30 28 27
36 36 36 38 39 38 35 36 38 39 35 36 33 37 40 44 41 40 44 42 43 43 41 41 39 40 40 35 37 37 37 37 37 37 36 35 34 33 32 30 29 28 27 25
36 35 37 39 36 31 36 41 40 40 36 31 37 33 34 43 42 42 42 43 38 43 39 39 40 38 35 38 38 38 39 39 38 36 35 34 33 33 31 29 28 27 26 25
35 36 33 30 34 39 40 37 33 33 35 36 35 38 36 41 40 39 40 41 38 35 38 40 37 35 38 39 39 36 37 40 37 36 34 34 33 32 31 30 29 27 26 24
34 31 30 35 39 38 35 31 30 32 33 38 39 38 36 41 36 37 39 37 37 33 34 33 34 34 36 34 31 31 33 35 37 37 37 36 34 33 32 31 29 27 25 24
34 33 37 36 33 32 30 30 32 33 33 37 37 37 38 40 41 37 37 35 35 30 34 32 31 35 32 28 29 32 34 34 36 37 35 35 34 33 32 31 28 26 24 20
36 33 30 30 32 27 27 27 31 31 33 34 36 36 38 39 39 37 35 32 31 33 31 29 32 32 29 29 32 33 34 33 33 33 33 34 35 33 32 29 26 23 21 19
28 26 25 27 26 26 28 29 30 32 33 34 36 36 36 36 36 36 31 33 32 28 27 28 33 31 30 31 31 32 32 31 31 32 32 33 33 31 29 28 27 22 19 19
27 26 24 26 29 31 31 32 32 34 35 35 36 35 35 34 34 33 32 29 26 27 29 32 31 31 30 29 29 30 30 29 30 31 31 31 31 30 29 26 23 21 20 19
27 27 26 28 28 28 28 30 31 33 32 35 35 34 33 33 33 30 28 28 27 31 28 30 31 29 29 28 28 29 29 28 29 29 30 29 28 27 26 23 22 21 20 18
25 24 28 30 28 28 28 27 28 29 33 31 32 31 31 33 30 28 32 29 30 28 29 30 29 28 28 27 28 29 28 28 28 28 28 27 27 25 22 21 21 19 18 17

GFSNW_sfc_30mbdewp_024.txt.gz
Dewpoint
39 41 40 41 44 47 43 37 30 39 44 33 35 31 33 38 37 37 33 29 27 25 30 28 27 27 27 30 30 28 29 27 25 27 29 29 29 27 26 20 17 23 22 20
37 38 39 40 43 46 42 34 36 42 40 30 33 36 36 37 35 34 32 29 27 28 29 25 26 27 28 30 30 28 28 25 21 24 27 29 28 28 27 26 26 23 20 19
37 37 38 40 42 45 42 35 28 33 38 38 35 34 34 32 35 33 31 28 28 28 26 27 28 28 29 31 31 31 29 28 22 19 23 27 26 27 28 27 25 23 23 22
37 37 37 39 41 44 42 37 35 37 31 32 33 37 35 32 31 33 31 27 27 28 27 28 29 29 29 31 33 33 29 26 28 28 28 29 28 28 28 27 26 25 24 26
37 37 36 37 40 42 40 35 34 36 35 34 34 33 32 33 34 34 31 30 31 29 30 30 29 29 29 28 31 30 31 26 30 27 28 29 28 28 28 28 28 28 28 28
38 37 36 36 37 39 39 39 40 39 34 32 30 29 32 33 35 34 36 33 35 34 36 37 34 32 31 31 30 30 30 28 27 23 27 28 27 29 29 30 31 30 31 33
38 37 37 36 36 37 40 40 40 36 31 33 31 32 32 33 35 33 36 36 35 39 39 38 37 36 33 32 31 32 32 31 31 25 27 21 30 32 32 31 33 36 36 36
38 37 37 36 36 35 36 41 38 36 31 34 33 34 32 36 36 36 36 38 39 40 38 34 32 33 30 32 33 34 35 33 29 25 25 26 29 34 35 34 32 34 35 35
39 39 37 36 36 35 34 38 39 37 33 33 37 36 34 32 33 35 38 41 42 39 37 34 27 24 27 30 33 35 35 35 32 30 25 21 25 36 37 36 31 36 35 34
37 39 36 37 37 36 34 34 37 35 33 36 36 35 36 35 33 32 36 39 37 40 35 32 29 25 32 30 29 31 32 33 30 30 27 28 30 31 38 30 29 35 35 35
35 35 38 37 37 35 34 32 37 33 30 30 31 36 36 39 37 34 37 36 38 37 33 32 31 29 31 31 32 32 31 30 29 31 28 23 31 36 33 33 35 36 35 37
37 36 38 35 36 36 36 31 34 38 33 28 34 32 32 32 38 41 40 35 37 36 34 34 34 31 33 32 27 33 31 31 29 31 28 30 31 34 35 35 35 34 35 36
40 38 35 34 36 38 37 34 34 34 30 27 28 26 28 31 30 33 40 41 40 40 39 36 36 32 33 29 30 32 34 33 33 33 33 33 34 35 34 34 33 35 36 36
42 38 35 36 36 37 38 35 35 34 29 25 24 35 34 37 41 39 42 44 44 42 40 36 36 32 37 31 33 35 35 35 34 33 34 35 35 34 34 34 35 34 35 34
41 38 36 37 38 37 38 36 36 35 27 24 25 26 26 34 42 43 45 44 42 41 39 37 35 36 36 36 35 33 34 33 31 29 33 35 36 35 35 34 34 32 33 32
41 37 38 36 36 38 37 31 39 38 35 27 23 34 35 44 45 44 43 43 43 42 39 39 40 41 36 35 33 33 35 35 35 34 35 36 36 35 34 33 32 32 31 31
40 36 37 36 37 39 34 26 36 40 37 30 26 28 38 44 44 44 44 44 43 42 40 39 39 39 39 37 33 33 38 41 41 39 38 36 35 35 33 32 32 31 29 29
38 37 36 37 39 38 35 37 39 38 33 30 26 28 40 44 41 40 44 42 42 42 40 41 39 39 39 35 36 37 35 31 36 34 36 37 35 33 32 31 29 28 27 26
36 37 38 38 35 31 36 40 40 38 33 27 29 29 32 43 41 42 42 42 37 41 38 38 39 36 34 32 28 28 29 30 31 33 35 34 34 33 31 29 28 27 25 25
36 34 32 32 35 39 40 37 32 31 31 30 27 36 36 41 39 39 38 40 37 34 38 40 37 35 33 30 30 30 31 33 33 33 32 34 33 32 31 29 28 27 26 24
32 30 29 34 38 37 34 30 28 30 28 31 33 38 37 41 37 37 40 36 36 32 34 35 33 34 29 30 29 30 31 32 33 33 34 35 36 36 33 30 29 27 26 26
31 33 37 36 33 31 28 28 31 30 31 36 36 37 38 39 40 37 37 34 34 30 34 32 29 32 30 30 29 29 29 30 32 33 33 34 37 36 34 31 29 27 27 27
37 34 29 29 31 25 26 25 29 31 32 33 35 35 37 38 38 36 34 31 31 33 31 28 30 29 29 29 29 29 29 30 31 33 33 34 35 34 33 31 28 27 23 21
28 26 24 25 26 27 27 28 30 32 33 33 35 35 35 35 34 34 29 32 31 28 26 26 29 29 28 28 28 28 28 29 30 33 32 33 35 33 31 28 25 24 23 22
26 27 21 25 28 30 31 32 31 34 34 34 35 35 35 33 32 33 32 29 26 26 25 29 28 28 28 28 27 27 28 28 28 29 32 30 33 33 33 32 30 28 28 28
26 27 24 26 26 27 29 29 29 34 33 34 34 33 32 32 31 30 28 25 24 27 28 28 28 27 28 28 27 28 28 28 28 28 28 29 29 31 33 32 32 30 27 23
25 24 27 27 28 28 27 28 29 30 32 31 32 30 28 32 30 29 29 28 29 29 29 28 27 27 27 27 28 28 28 27 27 27 27 26 27 25 25 25 24 26 26 24